Погода в Воротах

Россия / Республика Хакасия     54°42′17″N   90°31′03″E
темп.,
°C
ветер,
м/с
пор.,
м/с
влажн.,
%
обл.,
%
осадки,
мм/ч
давл.,
гПа
погр.,
м
20 января, ср
ср2001:00−23сз11810 0.0 102120
04:00−24с229278 0.0 102320
07:00−27ссв129988 0.0 102819
10:00−29всв1199100 0.0 103019
13:00−26всв119598 0.0 103299
16:00−28всв11950 0.0 103119
19:00−30в01960 0.0 103319
22:00−31ю11980 0.0 103219
21 января, чт
чт2101:00−30юв11964 0.0 103219
04:00−29юв129447 0.0 102919
07:00−26юв229473 0.0 102649
10:00−23юв3496100 0.1 1023184
13:00−20юв3598100 0.4 1021212
16:00−21юв2398100 0.0 101956
19:00−21юв23100100 0.0 101926
22:00−20юв2299100 0.0 101821
22 января, пт
пт2201:00−20юв2299100 0.0 101620
04:00−17юв2297100 0.0 101346
07:00−15юв2296100 0.0 101244
10:00−14юв1196100 0.3 101048
13:00−11вюв1194100 1.3 1009108
16:00−11в1196100 0.4 100771
19:00−11св1197100 0.8 100621
22:00−11ссз1296100 1.1 100651
23 января, сб
сб2301:00−11ссз3496100 2.1 1009171
04:00−13с3695100 0.6 1015279
07:00−16с1297100 1.1 102191
10:00−18вюв1196100 0.2 102620
13:00−13зюз4117775 0.2 1028706
16:00−14зюз4107889 0.0 1029251
19:00−14юз6127394 0.0 1031387
22:00−17зюз4878100 0.0 1032171
24 января, вс
вс2401:00−19юз2380100 0.0 103328
04:00−19ююз2281100 0.0 103421
07:00−19ююз2281100 0.0 103422
10:00−19ю2383100 0.0 103434
13:00−16ю3883100 0.0 1033297
16:00−16ю3486100 0.0 103265
19:00−17юз3780100 0.0 1033144
22:00−19з2384100 0.0 103426